PRIVATE WETTERSTATION BILLIGHEIM-ALLFELD                       ZURCK
Wetterdaten: Samstag, 04.06.2016
Datum Zeit Temp. A. Temp. A. min Temp. A. max Feuchte A. Luftdruck Regen Wind Richtung Richtung Sonnenschein ET Solar Taupunkt Windchill Windben Empfang
04.06.2016 00:00 15,1 C 15,1 C 15,2 C 91 % 1009,6 hPa 0,0 l/m 0,9 km/h (0 Bft) N 355 0 min 0,000 mm 0 W/m 13,6 C 15,1 C 3,2 km/h (1 Bft) 97 %
04.06.2016 00:10 15,1 C 15,1 C 15,2 C 91 % 1009,6 hPa 0,0 l/m 0,0 km/h (0 Bft) N-NO 17 0 min 0,000 mm 0 W/m 13,6 C 15,1 C 1,6 km/h (1 Bft) 98 %
04.06.2016 00:20 15,1 C 15,1 C 15,1 C 91 % 1009,7 hPa 0,0 l/m 1,2 km/h (1 Bft) N-NO 17 0 min 0,000 mm 0 W/m 13,6 C 15,1 C 3,2 km/h (1 Bft) 97 %
04.06.2016 00:30 15,1 C 15,1 C 15,1 C 91 % 1009,5 hPa 0,0 l/m 0,0 km/h (0 Bft) N-NO 17 0 min 0,000 mm 0 W/m 13,6 C 15,1 C 0,0 km/h (0 Bft) 97 %
04.06.2016 00:40 15,1 C 15,1 C 15,1 C 91 % 1009,6 hPa 0,0 l/m 0,0 km/h (0 Bft) N-NO 17 0 min 0,000 mm 0 W/m 13,6 C 15,1 C 0,0 km/h (0 Bft) 98 %
04.06.2016 00:50 15,1 C 15,1 C 15,1 C 91 % 1009,5 hPa 0,0 l/m 0,0 km/h (0 Bft) N-NO 17 0 min 0,000 mm 0 W/m 13,6 C 15,1 C 0,0 km/h (0 Bft) 97 %
04.06.2016 01:00 15,1 C 15,1 C 15,1 C 91 % 1009,5 hPa 0,0 l/m 0,0 km/h (0 Bft) N-NO 17 0 min 0,000 mm 0 W/m 13,6 C 15,1 C 0,0 km/h (0 Bft) 93 %
04.06.2016 01:10 15,1 C 15,1 C 15,1 C 91 % 1009,5 hPa 0,0 l/m 0,0 km/h (0 Bft) N-NO 17 0 min 0,000 mm 0 W/m 13,6 C 15,1 C 0,0 km/h (0 Bft) 94 %
04.06.2016 01:20 15,1 C 15,0 C 15,1 C 91 % 1009,5 hPa 0,0 l/m 0,0 km/h (0 Bft) N-NO 17 0 min 0,000 mm 0 W/m 13,6 C 15,1 C 1,6 km/h (1 Bft) 97 %
04.06.2016 01:30 14,9 C 14,9 C 15,1 C 91 % 1009,5 hPa 0,0 l/m 0,0 km/h (0 Bft) N-NO 17 0 min 0,000 mm 0 W/m 13,4 C 14,9 C 1,6 km/h (1 Bft) 98 %
04.06.2016 01:40 14,9 C 14,9 C 15,0 C 91 % 1009,5 hPa 0,0 l/m 0,0 km/h (0 Bft) N-NO 17 0 min 0,000 mm 0 W/m 13,4 C 14,9 C 0,0 km/h (0 Bft) 97 %
04.06.2016 01:50 14,9 C 14,9 C 15,0 C 91 % 1009,6 hPa 0,0 l/m 0,0 km/h (0 Bft) N-NO 17 0 min 0,000 mm 0 W/m 13,4 C 14,9 C 0,0 km/h (0 Bft) 98 %
04.06.2016 02:00 14,9 C 14,8 C 14,9 C 91 % 1009,5 hPa 0,0 l/m 0,0 km/h (0 Bft) N-NO 17 0 min 0,000 mm 0 W/m 13,4 C 14,9 C 1,6 km/h (1 Bft) 97 %
04.06.2016 02:10 14,9 C 14,8 C 14,9 C 91 % 1009,5 hPa 0,0 l/m 0,0 km/h (0 Bft) N-NO 17 0 min 0,000 mm 0 W/m 13,4 C 14,9 C 0,0 km/h (0 Bft) 97 %
04.06.2016 02:20 14,9 C 14,9 C 14,9 C 91 % 1009,5 hPa 0,0 l/m 0,8 km/h (0 Bft) N-NO 30 0 min 0,000 mm 0 W/m 13,4 C 14,9 C 4,8 km/h (1 Bft) 98 %
04.06.2016 02:30 15,1 C 14,9 C 15,1 C 91 % 1009,5 hPa 0,0 l/m 0,6 km/h (0 Bft) N-NO 31 0 min 0,000 mm 0 W/m 13,6 C 15,1 C 4,8 km/h (1 Bft) 97 %
04.06.2016 02:40 15,0 C 14,9 C 15,1 C 91 % 1009,6 hPa 0,0 l/m 0,0 km/h (0 Bft) N-NO 31 0 min 0,000 mm 0 W/m 13,5 C 15,0 C 0,0 km/h (0 Bft) 98 %
04.06.2016 02:50 14,9 C 14,9 C 15,0 C 91 % 1009,6 hPa 0,0 l/m 0,0 km/h (0 Bft) N-NO 31 0 min 0,000 mm 0 W/m 13,4 C 14,9 C 0,0 km/h (0 Bft) 97 %
04.06.2016 03:00 14,9 C 14,9 C 14,9 C 91 % 1009,6 hPa 0,0 l/m 0,0 km/h (0 Bft) N-NO 31 0 min 0,000 mm 0 W/m 13,4 C 14,9 C 0,0 km/h (0 Bft) 98 %
04.06.2016 03:10 14,9 C 14,9 C 14,9 C 91 % 1009,6 hPa 0,0 l/m 0,0 km/h (0 Bft) N-NO 31 0 min 0,000 mm 0 W/m 13,4 C 14,9 C 0,0 km/h (0 Bft) 97 %
04.06.2016 03:20 14,8 C 14,8 C 14,9 C 91 % 1009,5 hPa 0,0 l/m 0,0 km/h (0 Bft) N-NO 31 0 min 0,000 mm 0 W/m 13,3 C 14,8 C 1,6 km/h (1 Bft) 97 %
04.06.2016 03:30 14,8 C 14,8 C 14,8 C 91 % 1009,5 hPa 0,0 l/m 0,0 km/h (0 Bft) N-NO 31 0 min 0,000 mm 0 W/m 13,3 C 14,8 C 0,0 km/h (0 Bft) 98 %
04.06.2016 03:40 14,8 C 14,8 C 14,8 C 91 % 1009,5 hPa 0,0 l/m 0,0 km/h (0 Bft) N-NO 31 0 min 0,000 mm 0 W/m 13,3 C 14,8 C 0,0 km/h (0 Bft) 97 %
04.06.2016 03:50 14,8 C 14,8 C 14,8 C 91 % 1009,4 hPa 0,0 l/m 0,0 km/h (0 Bft) N-NO 31 0 min 0,000 mm 0 W/m 13,3 C 14,8 C 0,0 km/h (0 Bft) 98 %
04.06.2016 04:00 14,7 C 14,7 C 14,8 C 91 % 1009,4 hPa 0,0 l/m 0,0 km/h (0 Bft) N-NO 31 0 min 0,000 mm 0 W/m 13,2 C 14,7 C 1,6 km/h (1 Bft) 98 %
04.06.2016 04:10 14,6 C 14,6 C 14,7 C 91 % 1009,4 hPa 0,0 l/m 0,0 km/h (0 Bft) N-NO 31 0 min 0,000 mm 0 W/m 13,1 C 14,6 C 1,6 km/h (1 Bft) 98 %
04.06.2016 04:20 14,6 C 14,6 C 14,6 C 91 % 1009,4 hPa 0,0 l/m 1,1 km/h (1 Bft) NO 34 0 min 0,000 mm 0 W/m 13,1 C 14,6 C 4,8 km/h (1 Bft) 98 %
04.06.2016 04:30 14,6 C 14,6 C 14,6 C 91 % 1009,4 hPa 0,0 l/m 0,5 km/h (0 Bft) NO 34 0 min 0,000 mm 0 W/m 13,1 C 14,6 C 3,2 km/h (1 Bft) 98 %
04.06.2016 04:40 14,6 C 14,6 C 14,6 C 91 % 1009,3 hPa 0,0 l/m 0,0 km/h (0 Bft) NO 36 0 min 0,000 mm 0 W/m 13,1 C 14,6 C 1,6 km/h (1 Bft) 99 %
04.06.2016 04:50 14,5 C 14,5 C 14,6 C 91 % 1009,3 hPa 0,0 l/m 0,0 km/h (0 Bft) NO 36 0 min 0,000 mm 0 W/m 13,0 C 14,5 C 1,6 km/h (1 Bft) 98 %
04.06.2016 05:00 14,4 C 14,4 C 14,5 C 91 % 1009,4 hPa 0,0 l/m 0,0 km/h (0 Bft) NO 36 0 min 0,000 mm 0 W/m 12,9 C 14,4 C 1,6 km/h (1 Bft) 99 %
04.06.2016 05:10 14,5 C 14,4 C 14,5 C 91 % 1009,4 hPa 0,0 l/m 1,8 km/h (1 Bft) O 89 0 min 0,000 mm 0 W/m 13,0 C 14,5 C 6,4 km/h (2 Bft) 99 %
04.06.2016 05:20 14,6 C 14,5 C 14,6 C 91 % 1009,4 hPa 0,0 l/m 1,8 km/h (1 Bft) SO 132 0 min 0,000 mm 0 W/m 13,1 C 14,6 C 6,4 km/h (2 Bft) 99 %
04.06.2016 05:30 14,6 C 14,6 C 14,6 C 91 % 1009,5 hPa 0,0 l/m 0,4 km/h (0 Bft) SO 132 0 min 0,000 mm 0 W/m 13,1 C 14,6 C 3,2 km/h (1 Bft) 100 %
04.06.2016 05:40 14,7 C 14,6 C 14,7 C 91 % 1009,5 hPa 0,0 l/m 0,0 km/h (0 Bft) SO 132 0 min 0,000 mm 0 W/m 13,2 C 14,7 C 1,6 km/h (1 Bft) 100 %
04.06.2016 05:50 14,7 C 14,6 C 14,7 C 91 % 1009,5 hPa 0,0 l/m 0,0 km/h (0 Bft) SO 132 0 min 0,000 mm 0 W/m 13,2 C 14,7 C 1,6 km/h (1 Bft) 99 %
04.06.2016 06:00 14,7 C 14,7 C 14,7 C 91 % 1009,6 hPa 0,0 l/m 0,7 km/h (0 Bft) SO 130 0 min 0,000 mm 0 W/m 13,2 C 14,7 C 6,4 km/h (2 Bft) 98 %
04.06.2016 06:10 14,7 C 14,7 C 14,7 C 91 % 1009,7 hPa 0,0 l/m 0,0 km/h (0 Bft) SO 130 0 min 0,000 mm 0 W/m 13,2 C 14,7 C 1,6 km/h (1 Bft) 100 %
04.06.2016 06:20 14,7 C 14,7 C 14,7 C 91 % 1009,7 hPa 0,0 l/m 0,0 km/h (0 Bft) SO 130 0 min 0,000 mm 5 W/m 13,2 C 14,7 C 0,0 km/h (0 Bft) 99 %
04.06.2016 06:30 14,7 C 14,7 C 14,7 C 91 % 1009,7 hPa 0,0 l/m 0,0 km/h (0 Bft) SO 130 0 min 0,000 mm 5 W/m 13,2 C 14,7 C 1,6 km/h (1 Bft) 99 %
04.06.2016 06:40 14,7 C 14,7 C 14,7 C 91 % 1009,7 hPa 0,0 l/m 0,0 km/h (0 Bft) SO 130 0 min 0,000 mm 7 W/m 13,2 C 14,7 C 1,6 km/h (1 Bft) 100 %
04.06.2016 06:50 14,7 C 14,7 C 14,7 C 91 % 1009,7 hPa 0,2 l/m 0,0 km/h (0 Bft) SO 129 0 min 0,000 mm 14 W/m 13,2 C 14,7 C 1,6 km/h (1 Bft) 100 %
04.06.2016 07:00 14,7 C 14,7 C 14,7 C 91 % 1009,8 hPa 0,0 l/m 0,9 km/h (0 Bft) SO 126 0 min 0,000 mm 11 W/m 13,2 C 14,7 C 4,8 km/h (1 Bft) 100 %
04.06.2016 07:10 14,6 C 14,6 C 14,7 C 91 % 1009,7 hPa 0,0 l/m 0,0 km/h (0 Bft) SO 126 0 min 0,000 mm 16 W/m 13,1 C 14,6 C 1,6 km/h (1 Bft) 100 %
04.06.2016 07:20 14,6 C 14,6 C 14,7 C 91 % 1009,8 hPa 0,0 l/m 0,0 km/h (0 Bft) SO 127 0 min 0,000 mm 18 W/m 13,1 C 14,6 C 1,6 km/h (1 Bft) 100 %
04.06.2016 07:30 14,7 C 14,6 C 14,7 C 91 % 1009,9 hPa 0,0 l/m 0,0 km/h (0 Bft) SO 127 0 min 0,000 mm 28 W/m 13,2 C 14,7 C 0,0 km/h (0 Bft) 100 %
04.06.2016 07:40 14,7 C 14,7 C 14,7 C 91 % 1009,9 hPa 0,2 l/m 1,3 km/h (1 Bft) O-SO 113 0 min 0,000 mm 23 W/m 13,2 C 14,7 C 4,8 km/h (1 Bft) 100 %
04.06.2016 07:50 14,7 C 14,6 C 14,7 C 91 % 1010,0 hPa 0,0 l/m 1,2 km/h (1 Bft) O-SO 111 0 min 0,000 mm 21 W/m 13,2 C 14,7 C 6,4 km/h (2 Bft) 100 %
04.06.2016 08:00 14,7 C 14,6 C 14,7 C 91 % 1010,0 hPa 0,2 l/m 0,9 km/h (0 Bft) O-SO 105 0 min 0,000 mm 26 W/m 13,2 C 14,7 C 8,0 km/h (2 Bft) 100 %
04.06.2016 08:10 14,6 C 14,6 C 14,7 C 91 % 1010,1 hPa 0,2 l/m 3,2 km/h (1 Bft) O-SO 110 0 min 0,000 mm 35 W/m 13,1 C 14,6 C 9,7 km/h (2 Bft) 100 %
04.06.2016 08:20 14,7 C 14,6 C 14,7 C 91 % 1010,1 hPa 0,0 l/m 0,0 km/h (0 Bft) O-SO 109 0 min 0,000 mm 37 W/m 13,2 C 14,7 C 0,0 km/h (0 Bft) 91 %
04.06.2016 08:30 14,7 C 14,7 C 14,7 C 91 % 1010,3 hPa 0,2 l/m 0,0 km/h (0 Bft) O-SO 109 0 min 0,000 mm 62 W/m 13,2 C 14,7 C 1,6 km/h (1 Bft) 100 %
04.06.2016 08:40 14,9 C 14,7 C 14,9 C 91 % 1010,4 hPa 0,2 l/m 0,0 km/h (0 Bft) O-SO 103 0 min 0,000 mm 74 W/m 13,4 C 14,9 C 1,6 km/h (1 Bft) 100 %
04.06.2016 08:50 15,0 C 14,9 C 15,0 C 91 % 1010,4 hPa 0,2 l/m 0,0 km/h (0 Bft) O-SO 103 0 min 0,000 mm 132 W/m 13,5 C 15,0 C 0,0 km/h (0 Bft) 100 %
04.06.2016 09:00 15,1 C 15,0 C 15,1 C 91 % 1010,5 hPa 0,0 l/m 0,0 km/h (0 Bft) O-SO 105 10 min 0,051 mm 216 W/m 13,6 C 15,1 C 0,0 km/h (0 Bft) 100 %
04.06.2016 09:10 15,6 C 15,1 C 15,6 C 91 % 1010,5 hPa 0,2 l/m 0,0 km/h (0 Bft) O-SO 108 10 min 0,000 mm 469 W/m 14,1 C 15,6 C 0,0 km/h (0 Bft) 100 %
04.06.2016 09:20 16,0 C 15,6 C 16,0 C 91 % 1010,5 hPa 0,0 l/m 0,6 km/h (0 Bft) NO 45 10 min 0,000 mm 638 W/m 14,5 C 16,0 C 6,4 km/h (2 Bft) 100 %
04.06.2016 09:30 16,6 C 16,0 C 16,7 C 91 % 1010,5 hPa 0,0 l/m 0,0 km/h (0 Bft) O-NO 78 10 min 0,000 mm 417 W/m 15,1 C 16,6 C 1,6 km/h (1 Bft) 100 %
04.06.2016 09:40 16,8 C 16,6 C 16,8 C 91 % 1010,6 hPa 0,0 l/m 0,2 km/h (0 Bft) O-SO 105 10 min 0,000 mm 292 W/m 15,3 C 16,8 C 4,8 km/h (1 Bft) 100 %
04.06.2016 09:50 16,8 C 16,8 C 16,8 C 91 % 1010,6 hPa 0,0 l/m 0,0 km/h (0 Bft) O-SO 109 0 min 0,000 mm 144 W/m 15,3 C 16,8 C 1,6 km/h (1 Bft) 100 %
04.06.2016 10:00 16,7 C 16,7 C 16,8 C 91 % 1010,6 hPa 0,0 l/m 0,0 km/h (0 Bft) O-SO 113 10 min 0,203 mm 390 W/m 15,2 C 16,7 C 1,6 km/h (1 Bft) 100 %
04.06.2016 10:10 16,9 C 16,7 C 17,0 C 91 % 1010,6 hPa 0,0 l/m 0,1 km/h (0 Bft) S-SO 148 10 min 0,000 mm 225 W/m 15,4 C 16,9 C 4,8 km/h (1 Bft) 100 %
04.06.2016 10:20 16,8 C 16,8 C 16,9 C 91 % 1010,7 hPa 0,0 l/m 1,3 km/h (1 Bft) S-SW 209 0 min 0,000 mm 49 W/m 15,3 C 16,8 C 6,4 km/h (2 Bft) 100 %
04.06.2016 10:30 16,6 C 16,6 C 16,8 C 91 % 1010,9 hPa 0,0 l/m 1,1 km/h (1 Bft) S-SW 208 0 min 0,000 mm 63 W/m 15,1 C 16,6 C 6,4 km/h (2 Bft) 99 %
04.06.2016 10:40 16,6 C 16,5 C 16,6 C 91 % 1010,9 hPa 0,2 l/m 1,6 km/h (1 Bft) SW 236 10 min 0,000 mm 251 W/m 15,1 C 16,6 C 6,4 km/h (2 Bft) 100 %
04.06.2016 10:50 16,6 C 16,6 C 16,6 C 91 % 1010,9 hPa 0,0 l/m 0,5 km/h (0 Bft) SW 231 0 min 0,000 mm 141 W/m 15,1 C 16,6 C 8,0 km/h (2 Bft) 100 %
04.06.2016 11:00 16,4 C 16,4 C 16,6 C 91 % 1011,0 hPa 0,0 l/m 0,6 km/h (0 Bft) W-SW 238 0 min 0,102 mm 102 W/m 14,9 C 16,4 C 6,4 km/h (2 Bft) 100 %
04.06.2016 11:10 16,2 C 16,2 C 16,4 C 91 % 1011,1 hPa 0,0 l/m 0,0 km/h (0 Bft) W-SW 238 0 min 0,000 mm 111 W/m 14,7 C 16,2 C 1,6 km/h (1 Bft) 100 %
04.06.2016 11:20 16,2 C 16,2 C 16,2 C 91 % 1011,1 hPa 0,0 l/m 0,0 km/h (0 Bft) W-SW 238 0 min 0,000 mm 113 W/m 14,7 C 16,2 C 0,0 km/h (0 Bft) 100 %
04.06.2016 11:30 16,2 C 16,1 C 16,2 C 91 % 1011,2 hPa 0,0 l/m 0,0 km/h (0 Bft) W-SW 238 0 min 0,000 mm 98 W/m 14,7 C 16,2 C 0,0 km/h (0 Bft) 99 %
04.06.2016 11:40 16,2 C 16,2 C 16,2 C 91 % 1011,3 hPa 0,2 l/m 0,0 km/h (0 Bft) SW 232 10 min 0,000 mm 165 W/m 14,7 C 16,2 C 1,6 km/h (1 Bft) 99 %
04.06.2016 11:50 16,5 C 16,2 C 16,5 C 91 % 1011,3 hPa 0,0 l/m 1,5 km/h (1 Bft) S-SW 202 10 min 0,000 mm 200 W/m 15,0 C 16,5 C 8,0 km/h (2 Bft) 100 %
04.06.2016 12:00 16,5 C 16,4 C 16,6 C 91 % 1011,1 hPa 0,0 l/m 0,6 km/h (0 Bft) S-SO 149 10 min 0,076 mm 271 W/m 15,0 C 16,5 C 6,4 km/h (2 Bft) 100 %
04.06.2016 12:10 16,5 C 16,4 C 16,5 C 91 % 1011,1 hPa 0,0 l/m 0,0 km/h (0 Bft) S-SO 148 10 min 0,000 mm 490 W/m 15,0 C 16,5 C 0,0 km/h (0 Bft) 100 %
04.06.2016 12:20 16,8 C 16,5 C 16,8 C 91 % 1011,3 hPa 0,0 l/m 0,0 km/h (0 Bft) S-SO 150 10 min 0,000 mm 353 W/m 15,3 C 16,8 C 1,6 km/h (1 Bft) 100 %
04.06.2016 12:30 17,1 C 16,8 C 17,1 C 91 % 1011,4 hPa 0,2 l/m 0,0 km/h (0 Bft) S-SO 155 10 min 0,000 mm 232 W/m 15,6 C 17,1 C 0,0 km/h (0 Bft) 100 %
04.06.2016 12:40 17,2 C 17,1 C 17,2 C 91 % 1011,3 hPa 0,0 l/m 0,6 km/h (0 Bft) S-SO 157 10 min 0,000 mm 383 W/m 15,7 C 17,2 C 8,0 km/h (2 Bft) 100 %
04.06.2016 12:50 17,4 C 17,2 C 17,4 C 91 % 1011,4 hPa 0,0 l/m 2,1 km/h (1 Bft) S-SW 211 10 min 0,000 mm 401 W/m 15,9 C 17,4 C 9,7 km/h (2 Bft) 100 %
04.06.2016 13:00 17,6 C 17,4 C 17,6 C 91 % 1011,3 hPa 0,2 l/m 0,0 km/h (0 Bft) S-SW 212 10 min 0,178 mm 251 W/m 16,1 C 17,6 C 1,6 km/h (1 Bft) 99 %
04.06.2016 13:10 17,6 C 17,6 C 17,7 C 90 % 1011,2 hPa 0,0 l/m 0,0 km/h (0 Bft) S-SW 211 10 min 0,000 mm 253 W/m 15,9 C 17,6 C 1,6 km/h (1 Bft) 100 %
04.06.2016 13:20 17,6 C 17,6 C 17,6 C 90 % 1011,1 hPa 0,0 l/m 0,0 km/h (0 Bft) S-SW 197 10 min 0,000 mm 411 W/m 15,9 C 17,6 C 0,0 km/h (0 Bft) 100 %
04.06.2016 13:30 17,9 C 17,6 C 17,9 C 90 % 1011,1 hPa 0,0 l/m 0,0 km/h (0 Bft) S-SW 194 10 min 0,000 mm 494 W/m 16,2 C 17,9 C 1,6 km/h (1 Bft) 100 %
04.06.2016 13:40 18,2 C 17,9 C 18,2 C 89 % 1011,1 hPa 0,0 l/m 0,4 km/h (0 Bft) S 172 10 min 0,000 mm 404 W/m 16,4 C 18,2 C 6,4 km/h (2 Bft) 100 %
04.06.2016 13:50 18,4 C 18,2 C 18,4 C 89 % 1011,3 hPa 0,0 l/m 3,0 km/h (1 Bft) S 184 10 min 0,000 mm 441 W/m 16,6 C 18,4 C 9,7 km/h (2 Bft) 100 %
04.06.2016 14:00 18,5 C 18,4 C 18,5 C 87 % 1011,3 hPa 0,0 l/m 0,8 km/h (0 Bft) S-SO 154 10 min 0,228 mm 408 W/m 16,3 C 18,5 C 8,0 km/h (2 Bft) 100 %
04.06.2016 14:10 18,5 C 18,5 C 18,6 C 86 % 1011,2 hPa 0,0 l/m 0,0 km/h (0 Bft) S-SO 154 10 min 0,000 mm 417 W/m 16,1 C 18,5 C 0,0 km/h (0 Bft) 100 %
04.06.2016 14:20 18,7 C 18,5 C 18,8 C 85 % 1011,2 hPa 0,0 l/m 0,7 km/h (0 Bft) S-SO 153 10 min 0,000 mm 441 W/m 16,1 C 18,7 C 6,4 km/h (2 Bft) 100 %
04.06.2016 14:30 18,9 C 18,7 C 18,9 C 87 % 1011,2 hPa 0,0 l/m 0,9 km/h (0 Bft) S 186 10 min 0,000 mm 420 W/m 16,7 C 18,9 C 8,0 km/h (2 Bft) 100 %
04.06.2016 14:40 19,1 C 18,9 C 19,1 C 85 % 1011,1 hPa 0,0 l/m 0,5 km/h (0 Bft) S-SO 164 10 min 0,000 mm 543 W/m 16,5 C 19,1 C 6,4 km/h (2 Bft) 100 %
04.06.2016 14:50 19,6 C 19,1 C 19,6 C 84 % 1011,1 hPa 0,0 l/m 0,6 km/h (0 Bft) S-SO 164 10 min 0,000 mm 603 W/m 16,8 C 19,6 C 6,4 km/h (2 Bft) 100 %
04.06.2016 15:00 19,8 C 19,6 C 19,8 C 78 % 1011,1 hPa 0,0 l/m 1,5 km/h (1 Bft) SO 132 10 min 0,305 mm 666 W/m 15,8 C 19,8 C 9,7 km/h (2 Bft) 100 %
04.06.2016 15:10 20,0 C 19,8 C 20,1 C 78 % 1011,1 hPa 0,0 l/m 0,2 km/h (0 Bft) SO 128 10 min 0,000 mm 710 W/m 16,0 C 20,0 C 4,8 km/h (1 Bft) 100 %
04.06.2016 15:20 20,1 C 20,0 C 20,1 C 76 % 1011,1 hPa 0,0 l/m 0,6 km/h (0 Bft) SO 136 10 min 0,000 mm 431 W/m 15,7 C 20,1 C 8,0 km/h (2 Bft) 100 %
04.06.2016 15:30 20,3 C 20,1 C 20,3 C 78 % 1011,1 hPa 0,0 l/m 0,0 km/h (0 Bft) SO 136 10 min 0,000 mm 385 W/m 16,3 C 20,3 C 1,6 km/h (1 Bft) 100 %
04.06.2016 15:40 20,6 C 20,3 C 20,6 C 76 % 1011,0 hPa 0,0 l/m 0,8 km/h (0 Bft) SO 142 10 min 0,000 mm 348 W/m 16,2 C 20,6 C 8,0 km/h (2 Bft) 100 %
04.06.2016 15:50 20,4 C 20,4 C 20,6 C 80 % 1010,7 hPa 0,0 l/m 0,9 km/h (0 Bft) S 189 10 min 0,000 mm 568 W/m 16,8 C 20,4 C 9,7 km/h (2 Bft) 100 %
04.06.2016 16:00 20,4 C 20,4 C 20,4 C 80 % 1010,8 hPa 0,0 l/m 1,2 km/h (1 Bft) S-SW 200 10 min 0,279 mm 281 W/m 16,8 C 20,4 C 11,3 km/h (2 Bft) 100 %
04.06.2016 16:10 20,1 C 20,1 C 20,4 C 79 % 1010,8 hPa 0,0 l/m 1,5 km/h (1 Bft) S 169 0 min 0,000 mm 151 W/m 16,3 C 20,1 C 11,3 km/h (2 Bft) 100 %
04.06.2016 16:20 19,4 C 19,4 C 20,1 C 83 % 1010,8 hPa 0,0 l/m 2,2 km/h (1 Bft) S 184 10 min 0,000 mm 178 W/m 16,4 C 19,4 C 11,3 km/h (2 Bft) 100 %
04.06.2016 16:30 19,3 C 19,3 C 19,4 C 83 % 1010,7 hPa 0,0 l/m 1,9 km/h (1 Bft) S 174 10 min 0,000 mm 174 W/m 16,3 C 19,3 C 9,7 km/h (2 Bft) 100 %
04.06.2016 16:40 19,7 C 19,3 C 19,7 C 82 % 1010,6 hPa 0,0 l/m 2,0 km/h (1 Bft) S-SW 204 0 min 0,000 mm 100 W/m 16,5 C 19,7 C 8,0 km/h (2 Bft) 98 %
04.06.2016 16:50 20,2 C 19,7 C 20,2 C 77 % 1010,5 hPa 0,0 l/m 0,6 km/h (0 Bft) S-SW 202 0 min 0,000 mm 102 W/m 16,0 C 20,2 C 6,4 km/h (2 Bft) 99 %
04.06.2016 17:00 20,7 C 20,2 C 20,7 C 77 % 1010,6 hPa 0,0 l/m 0,5 km/h (0 Bft) SW 214 10 min 0,102 mm 162 W/m 16,5 C 20,7 C 4,8 km/h (1 Bft) 100 %
04.06.2016 17:10 21,4 C 20,7 C 21,4 C 77 % 1010,4 hPa 0,0 l/m 1,3 km/h (1 Bft) W-NW 296 10 min 0,000 mm 294 W/m 17,2 C 21,4 C 8,0 km/h (2 Bft) 100 %
04.06.2016 17:20 21,6 C 21,4 C 21,7 C 71 % 1010,5 hPa 0,0 l/m 1,9 km/h (1 Bft) W-NW 289 10 min 0,000 mm 294 W/m 16,1 C 21,6 C 9,7 km/h (2 Bft) 100 %
04.06.2016 17:30 21,7 C 21,6 C 21,7 C 78 % 1010,3 hPa 0,0 l/m 1,2 km/h (1 Bft) NW 316 10 min 0,000 mm 248 W/m 17,7 C 21,7 C 6,4 km/h (2 Bft) 100 %
04.06.2016 17:40 21,9 C 21,7 C 21,9 C 75 % 1010,3 hPa 0,0 l/m 1,3 km/h (1 Bft) NW 310 10 min 0,000 mm 218 W/m 17,3 C 21,9 C 8,0 km/h (2 Bft) 100 %
04.06.2016 17:50 22,1 C 21,9 C 22,2 C 75 % 1010,4 hPa 0,0 l/m 1,0 km/h (0 Bft) W-NW 294 10 min 0,000 mm 174 W/m 17,5 C 22,1 C 6,4 km/h (2 Bft) 100 %
04.06.2016 18:00 21,4 C 21,4 C 22,1 C 76 % 1010,4 hPa 0,0 l/m 0,2 km/h (0 Bft) SW 220 10 min 0,152 mm 158 W/m 17,0 C 21,4 C 4,8 km/h (1 Bft) 100 %
04.06.2016 18:10 20,8 C 20,8 C 21,4 C 77 % 1010,5 hPa 0,0 l/m 0,0 km/h (0 Bft) W 262 0 min 0,000 mm 105 W/m 16,6 C 20,8 C 1,6 km/h (1 Bft) 100 %
04.06.2016 18:20 20,6 C 20,6 C 20,8 C 79 % 1010,6 hPa 0,0 l/m 0,0 km/h (0 Bft) W-SW 240 0 min 0,000 mm 105 W/m 16,8 C 20,6 C 1,6 km/h (1 Bft) 100 %
04.06.2016 18:30 20,5 C 20,5 C 20,6 C 80 % 1010,6 hPa 0,0 l/m 0,0 km/h (0 Bft) SW 221 0 min 0,000 mm 74 W/m 16,9 C 20,5 C 1,6 km/h (1 Bft) 100 %
04.06.2016 18:40 20,4 C 20,4 C 20,5 C 82 % 1010,6 hPa 0,0 l/m 0,0 km/h (0 Bft) N 0 0 min 0,000 mm 70 W/m 17,2 C 20,4 C 0,0 km/h (0 Bft) 100 %
04.06.2016 18:50 19,2 C 19,2 C 20,4 C 82 % 1010,5 hPa 2,0 l/m 6,4 km/h (2 Bft) SO 135 0 min 0,000 mm 44 W/m 16,0 C 19,2 C 24,1 km/h (4 Bft) 100 %
04.06.2016 19:00 18,0 C 18,0 C 19,2 C 86 % 1010,5 hPa 2,4 l/m 1,6 km/h (1 Bft) S-SO 157 0 min 0,051 mm 37 W/m 15,6 C 18,0 C 6,4 km/h (2 Bft) 100 %
04.06.2016 19:10 17,7 C 17,7 C 18,0 C 90 % 1010,6 hPa 0,4 l/m 0,0 km/h (0 Bft) N 0 0 min 0,000 mm 32 W/m 16,0 C 17,7 C 0,0 km/h (0 Bft) 100 %
04.06.2016 19:20 17,5 C 17,5 C 17,7 C 90 % 1010,8 hPa 0,0 l/m 0,0 km/h (0 Bft) N 0 0 min 0,000 mm 28 W/m 15,8 C 17,5 C 0,0 km/h (0 Bft) 99 %
04.06.2016 19:30 17,4 C 17,4 C 17,5 C 90 % 1010,9 hPa 0,0 l/m 0,0 km/h (0 Bft) N 0 0 min 0,000 mm 21 W/m 15,7 C 17,4 C 0,0 km/h (0 Bft) 100 %
04.06.2016 19:40 17,2 C 17,1 C 17,4 C 90 % 1010,9 hPa 0,0 l/m 0,0 km/h (0 Bft) SO 135 0 min 0,000 mm 19 W/m 15,5 C 17,2 C 1,6 km/h (1 Bft) 100 %
04.06.2016 19:50 17,0 C 17,0 C 17,2 C 90 % 1011,0 hPa 0,0 l/m 0,0 km/h (0 Bft) N 0 0 min 0,000 mm 19 W/m 15,3 C 17,0 C 0,0 km/h (0 Bft) 99 %
04.06.2016 20:00 16,9 C 16,9 C 17,0 C 91 % 1011,2 hPa 0,0 l/m 0,0 km/h (0 Bft) N 0 0 min 0,025 mm 16 W/m 15,4 C 16,9 C 0,0 km/h (0 Bft) 100 %
04.06.2016 20:10 16,8 C 16,8 C 16,9 C 90 % 1011,2 hPa 0,0 l/m 0,0 km/h (0 Bft) N 0 0 min 0,000 mm 11 W/m 15,1 C 16,8 C 0,0 km/h (0 Bft) 100 %
04.06.2016 20:20 16,7 C 16,7 C 16,8 C 91 % 1011,2 hPa 0,0 l/m 0,0 km/h (0 Bft) SO 135 0 min 0,000 mm 11 W/m 15,2 C 16,7 C 1,6 km/h (1 Bft) 99 %
04.06.2016 20:30 16,6 C 16,6 C 16,7 C 91 % 1011,4 hPa 0,0 l/m 0,0 km/h (0 Bft) N 0 0 min 0,000 mm 9 W/m 15,1 C 16,6 C 0,0 km/h (0 Bft) 100 %
04.06.2016 20:40 16,4 C 16,4 C 16,6 C 91 % 1011,4 hPa 0,0 l/m 0,0 km/h (0 Bft) N 0 0 min 0,000 mm 7 W/m 14,9 C 16,4 C 0,0 km/h (0 Bft) 100 %
04.06.2016 20:50 16,4 C 16,4 C 16,5 C 91 % 1011,6 hPa 0,0 l/m 0,0 km/h (0 Bft) N 0 0 min 0,000 mm 0 W/m 14,9 C 16,4 C 0,0 km/h (0 Bft) 99 %
04.06.2016 21:00 16,3 C 16,3 C 16,4 C 91 % 1011,8 hPa 0,0 l/m 0,0 km/h (0 Bft) N 0 0 min 0,000 mm 0 W/m 14,8 C 16,3 C 0,0 km/h (0 Bft) 100 %
04.06.2016 21:10 15,9 C 15,9 C 16,3 C 91 % 1011,9 hPa 0,0 l/m 0,0 km/h (0 Bft) SO 135 0 min 0,000 mm 0 W/m 14,4 C 15,9 C 1,6 km/h (1 Bft) 100 %
04.06.2016 21:20 15,7 C 15,7 C 15,9 C 91 % 1011,9 hPa 0,0 l/m 0,0 km/h (0 Bft) N 0 0 min 0,000 mm 0 W/m 14,2 C 15,7 C 0,0 km/h (0 Bft) 100 %
04.06.2016 21:30 15,5 C 15,5 C 15,7 C 91 % 1012,0 hPa 0,0 l/m 0,0 km/h (0 Bft) N 0 0 min 0,000 mm 0 W/m 14,0 C 15,5 C 0,0 km/h (0 Bft) 100 %
04.06.2016 21:40 15,4 C 15,4 C 15,5 C 91 % 1012,2 hPa 0,0 l/m 0,0 km/h (0 Bft) SO 135 0 min 0,000 mm 0 W/m 13,9 C 15,4 C 1,6 km/h (1 Bft) 100 %
04.06.2016 21:50 15,3 C 15,3 C 15,4 C 91 % 1012,4 hPa 0,0 l/m 0,0 km/h (0 Bft) N 0 0 min 0,000 mm 0 W/m 13,8 C 15,3 C 0,0 km/h (0 Bft) 100 %
04.06.2016 22:00 15,2 C 15,2 C 15,3 C 91 % 1012,4 hPa 0,0 l/m 0,0 km/h (0 Bft) N 0 0 min 0,000 mm 0 W/m 13,7 C 15,2 C 0,0 km/h (0 Bft) 100 %
04.06.2016 22:10 15,2 C 15,1 C 15,2 C 91 % 1012,4 hPa 0,0 l/m 0,0 km/h (0 Bft) N 0 0 min 0,000 mm 0 W/m 13,7 C 15,2 C 0,0 km/h (0 Bft) 100 %
04.06.2016 22:20 15,1 C 15,1 C 15,2 C 91 % 1012,8 hPa 0,0 l/m 0,0 km/h (0 Bft) N 0 0 min 0,000 mm 0 W/m 13,6 C 15,1 C 0,0 km/h (0 Bft) 100 %
04.06.2016 22:30 15,1 C 15,1 C 15,2 C 91 % 1012,8 hPa 0,0 l/m 0,0 km/h (0 Bft) N 0 0 min 0,000 mm 0 W/m 13,6 C 15,1 C 0,0 km/h (0 Bft) 100 %
04.06.2016 22:40 15,1 C 15,1 C 15,1 C 91 % 1013,0 hPa 0,0 l/m 0,0 km/h (0 Bft) N 0 0 min 0,000 mm 0 W/m 13,6 C 15,1 C 0,0 km/h (0 Bft) 100 %
04.06.2016 22:50 15,1 C 15,1 C 15,1 C 91 % 1013,0 hPa 0,0 l/m 0,0 km/h (0 Bft) N 0 0 min 0,000 mm 0 W/m 13,6 C 15,1 C 0,0 km/h (0 Bft) 99 %
04.06.2016 23:00 15,2 C 15,1 C 15,2 C 90 % 1013,0 hPa 0,0 l/m 0,0 km/h (0 Bft) SO 135 0 min 0,000 mm 0 W/m 13,6 C 15,2 C 3,2 km/h (1 Bft) 100 %
04.06.2016 23:10 15,4 C 15,2 C 15,4 C 91 % 1013,0 hPa 0,0 l/m 0,0 km/h (0 Bft) N 0 0 min 0,000 mm 0 W/m 13,9 C 15,4 C 0,0 km/h (0 Bft) 100 %
04.06.2016 23:20 15,4 C 15,4 C 15,5 C 91 % 1013,0 hPa 0,0 l/m 0,0 km/h (0 Bft) N 0 0 min 0,000 mm 0 W/m 13,9 C 15,4 C 0,0 km/h (0 Bft) 100 %
04.06.2016 23:30 15,4 C 15,4 C 15,5 C 91 % 1013,0 hPa 0,0 l/m 0,0 km/h (0 Bft) SO 135 0 min 0,000 mm 0 W/m 13,9 C 15,4 C 3,2 km/h (1 Bft) 100 %
04.06.2016 23:40 15,3 C 15,3 C 15,4 C 91 % 1013,1 hPa 0,0 l/m 0,0 km/h (0 Bft) SO 135 0 min 0,000 mm 0 W/m 13,8 C 15,3 C 1,6 km/h (1 Bft) 100 %
04.06.2016 23:50 15,3 C 15,3 C 15,3 C 91 % 1013,2 hPa 0,0 l/m 0,0 km/h (0 Bft) SO 135 0 min 0,000 mm 0 W/m 13,8 C 15,3 C 3,2 km/h (1 Bft) 100 %
_ Min-Zeit 05:00 05:00 05:00 17:20 04:40 - 00:10 - - - - - 05:00 05:00 00:30 08:20
Minimum _ 14,4 C 14,4 C 14,5 C 71 % 1009,3 hPa - 0,0 km/h (0 Bft) - - - - - 12,9 C 14,4 C 0,0 km/h (0 Bft) 91 %
_ Max-Zeit 17:50 17:50 17:50 00:00 23:50 19:00 18:50 - - 09:00 15:00 15:10 17:30 17:50 18:50 06:40
Maximum _ 22,2 C 21,9 C 22,2 C 91 % 1013,2 hPa 2,4 l/m 6,4 km/h
SO (2 Bft)
- - 10 min 0,305 mm 710 W/m 17,7 C 22,1 C 24,1 km/h
SO (4 Bft)
100 %
Durchschnitt _ 16,6 C 16,5 C 16,7 C 89 % 1010,6 hPa #7,2 l/m 0,4 km/h (0 Bft) S-SW - #7:20 h #1,752 mm 208 W/m 14,7 C 16,6 C 3,2 km/h (1 Bft) 99 %
PRIVATE WETTERSTATION BILLIGHEIM-ALLFELD - www.neckar-odenwald-wetter.de - Holger Sonntag